Time,TemperatureF,DewpointF,PressureIn,WindDirection,WindDirectionDegrees,WindSpeedMPH,WindSpeedGustMPH,Humidity,HourlyPrecipIn,Conditions,Clouds,dailyrainin,SoftwareType,DateUTC
2013-01-17 00:02:00,36.5,36.0,30.16,West,270,6.3,-999.0,98,-99.99,,,0.00,Acu-Link.com,2013-01-17 06:02:00,
2013-01-17 00:18:00,35.8,35.3,30.17,WNW,292,4.7,-999.0,98,-99.99,,,0.00,Acu-Link.com,2013-01-17 06:18:00,
2013-01-17 00:33:00,35.4,34.9,30.18,NW,315,6.3,-999.0,98,-99.99,,,0.00,Acu-Link.com,2013-01-17 06:33:00,
2013-01-17 01:12:00,34.3,33.8,30.21,NW,315,2.7,-999.0,98,-99.99,,,0.00,Acu-Link.com,2013-01-17 07:12:00,
2013-01-17 01:27:00,31.8,31.3,30.22,WNW,292,1.7,-999.0,98,-99.99,,,0.00,Acu-Link.com,2013-01-17 07:27:00,
2013-01-17 01:43:00,31.3,30.8,30.23,WNW,292,1.7,-999.0,98,-99.99,,,0.00,Acu-Link.com,2013-01-17 07:43:00,
2013-01-17 01:58:00,31.6,31.1,30.24,NNW,337,5.3,-999.0,98,-99.99,,,0.00,Acu-Link.com,2013-01-17 07:58:00,
2013-01-17 04:32:00,26.6,26.1,30.29,NW,315,2.7,-999.0,98,-99.99,,,0.00,Acu-Link.com,2013-01-17 10:32:00,
2013-01-17 04:48:00,26.6,26.1,30.30,WNW,292,3.7,-999.0,98,-99.99,,,0.00,Acu-Link.com,2013-01-17 10:48:00,
2013-01-17 05:03:00,25.7,25.2,30.30,WNW,292,1.7,-999.0,98,-99.99,,,0.00,Acu-Link.com,2013-01-17 11:03:00,
2013-01-17 05:19:00,25.3,24.8,30.31,West,270,2.7,-999.0,98,-99.99,,,0.00,Acu-Link.com,2013-01-17 11:19:00,
2013-01-17 05:34:00,25.3,24.8,30.33,NNW,337,5.3,-999.0,98,-99.99,,,0.00,Acu-Link.com,2013-01-17 11:34:00,
2013-01-17 05:49:00,25.7,25.2,30.32,NNW,337,3.7,-999.0,98,-99.99,,,0.00,Acu-Link.com,2013-01-17 11:49:00,
2013-01-17 06:04:00,25.0,24.5,30.32,West,270,2.7,-999.0,98,-99.99,,,0.00,Acu-Link.com,2013-01-17 12:04:00,
2013-01-17 06:20:00,24.8,24.3,30.34,WNW,292,0.0,-999.0,98,-99.99,,,0.00,Acu-Link.com,2013-01-17 12:20:00,
2013-01-17 06:35:00,24.4,23.9,30.33,WNW,292,2.7,-999.0,98,-99.99,,,0.00,Acu-Link.com,2013-01-17 12:35:00,
2013-01-17 06:50:00,24.1,23.6,30.34,West,270,1.7,-999.0,98,-99.99,,,0.00,Acu-Link.com,2013-01-17 12:50:00,
2013-01-17 07:05:00,23.7,23.2,30.35,West,270,2.2,-999.0,98,-99.99,,,0.00,Acu-Link.com,2013-01-17 13:05:00,
2013-01-17 07:20:00,23.7,23.2,30.36,WNW,292,2.2,-999.0,98,-99.99,,,0.00,Acu-Link.com,2013-01-17 13:20:00,
2013-01-17 07:36:00,23.2,22.7,30.36,NNW,337,3.7,-999.0,98,-99.99,,,0.00,Acu-Link.com,2013-01-17 13:36:00,
2013-01-17 07:51:00,23.2,22.7,30.35,NNW,337,2.2,-999.0,98,-99.99,,,0.00,Acu-Link.com,2013-01-17 13:51:00,
2013-01-17 08:06:00,23.5,23.0,30.37,NW,315,0.0,-999.0,98,-99.99,,,0.00,Acu-Link.com,2013-01-17 14:06:00,
2013-01-17 08:21:00,24.1,23.6,30.37,NW,315,0.0,-999.0,98,-99.99,,,0.00,Acu-Link.com,2013-01-17 14:21:00,
2013-01-17 08:36:00,24.6,24.1,30.39,NNW,337,4.2,-999.0,98,-99.99,,,0.00,Acu-Link.com,2013-01-17 14:36:00,
2013-01-17 08:52:00,24.8,24.3,30.39,NNW,337,5.8,-999.0,98,-99.99,,,0.00,Acu-Link.com,2013-01-17 14:52:00,
2013-01-17 09:07:00,25.2,24.7,30.41,North,0,5.8,-999.0,98,-99.99,,,0.00,Acu-Link.com,2013-01-17 15:07:00,
2013-01-17 09:22:00,26.6,26.1,30.40,North,0,2.7,-999.0,98,-99.99,,,0.00,Acu-Link.com,2013-01-17 15:22:00,
2013-01-17 09:37:00,28.6,28.1,30.40,NNE,22,1.7,-999.0,98,-99.99,,,0.00,Acu-Link.com,2013-01-17 15:37:00,
2013-01-17 09:52:00,29.3,28.8,30.41,NNE,22,2.7,-999.0,98,-99.99,,,0.00,Acu-Link.com,2013-01-17 15:52:00,
2013-01-17 10:08:00,29.5,29.0,30.42,NW,315,1.7,-999.0,98,-99.99,,,0.00,Acu-Link.com,2013-01-17 16:08:00,
2013-01-17 10:23:00,31.8,31.3,30.42,ENE,67,3.2,-999.0,98,-99.99,,,0.00,Acu-Link.com,2013-01-17 16:23:00,
2013-01-17 10:38:00,32.2,31.7,30.42,North,0,1.7,-999.0,98,-99.99,,,0.00,Acu-Link.com,2013-01-17 16:38:00,
2013-01-17 10:53:00,33.3,32.8,30.43,WSW,247,3.7,-999.0,98,-99.99,,,0.00,Acu-Link.com,2013-01-17 16:53:00,
2013-01-17 11:08:00,32.9,32.4,30.43,WSW,247,3.7,-999.0,98,-99.99,,,0.00,Acu-Link.com,2013-01-17 17:08:00,
2013-01-17 11:24:00,33.6,33.1,30.41,West,270,1.7,-999.0,98,-99.99,,,0.00,Acu-Link.com,2013-01-17 17:24:00,
2013-01-17 11:39:00,34.7,34.2,30.40,SSW,202,4.7,-999.0,98,-99.99,,,0.00,Acu-Link.com,2013-01-17 17:39:00,
2013-01-17 11:54:00,33.1,32.6,30.39,WSW,247,2.7,-999.0,98,-99.99,,,0.00,Acu-Link.com,2013-01-17 17:54:00,
2013-01-17 12:09:00,31.8,31.3,30.39,SW,225,4.2,-999.0,98,-99.99,,,0.00,Acu-Link.com,2013-01-17 18:09:00,
2013-01-17 12:25:00,34.0,33.5,30.38,West,270,3.2,-999.0,98,-99.99,,,0.00,Acu-Link.com,2013-01-17 18:25:00,
2013-01-17 12:40:00,35.2,32.3,30.37,NW,315,2.2,-999.0,89,-99.99,,,0.00,Acu-Link.com,2013-01-17 18:40:00,
2013-01-17 12:55:00,37.8,33.7,30.36,WSW,247,3.2,-999.0,85,-99.99,,,0.00,Acu-Link.com,2013-01-17 18:55:00,
2013-01-17 13:10:00,39.0,35.2,30.35,SSE,157,4.7,-999.0,86,-99.99,,,0.00,Acu-Link.com,2013-01-17 19:10:00,
2013-01-17 13:25:00,39.7,35.3,30.35,South,180,2.2,-999.0,84,-99.99,,,0.00,Acu-Link.com,2013-01-17 19:25:00,
2013-01-17 13:41:00,40.8,35.4,30.36,NNW,337,2.7,-999.0,81,-99.99,,,0.00,Acu-Link.com,2013-01-17 19:41:00,
2013-01-17 13:56:00,42.4,36.4,30.34,NE,45,2.2,-999.0,79,-99.99,,,0.00,Acu-Link.com,2013-01-17 19:56:00,
2013-01-17 14:11:00,41.7,36.0,30.34,North,0,2.7,-999.0,80,-99.99,,,0.00,Acu-Link.com,2013-01-17 20:11:00,
2013-01-17 14:26:00,42.1,36.1,30.34,NNW,337,2.2,-999.0,79,-99.99,,,0.00,Acu-Link.com,2013-01-17 20:26:00,
2013-01-17 14:41:00,41.9,35.9,30.33,NE,45,1.7,-999.0,79,-99.99,,,0.00,Acu-Link.com,2013-01-17 20:41:00,
2013-01-17 14:57:00,42.3,36.3,30.33,ENE,67,6.3,-999.0,79,-99.99,,,0.00,Acu-Link.com,2013-01-17 20:57:00,
2013-01-17 15:12:00,43.3,36.6,30.32,ESE,112,4.7,-999.0,77,-99.99,,,0.00,Acu-Link.com,2013-01-17 21:12:00,
2013-01-17 15:27:00,43.7,36.6,30.32,SW,225,2.7,-999.0,76,-99.99,,,0.00,Acu-Link.com,2013-01-17 21:27:00,
2013-01-17 15:42:00,43.7,36.6,30.31,ESE,112,4.2,-999.0,76,-99.99,,,0.00,Acu-Link.com,2013-01-17 21:42:00,
2013-01-17 15:57:00,43.7,36.6,30.32,ESE,112,2.2,-999.0,76,-99.99,,,0.00,Acu-Link.com,2013-01-17 21:57:00,
2013-01-17 16:13:00,43.2,36.2,30.33,NNE,22,4.2,-999.0,76,-99.99,,,0.00,Acu-Link.com,2013-01-17 22:13:00,
2013-01-17 16:28:00,42.6,36.2,30.33,ENE,67,3.2,-999.0,78,-99.99,,,0.00,Acu-Link.com,2013-01-17 22:28:00,
2013-01-17 16:43:00,41.2,35.2,30.33,East,90,2.2,-999.0,79,-99.99,,,0.00,Acu-Link.com,2013-01-17 22:43:00,
2013-01-17 16:58:00,40.1,35.4,30.33,NE,45,4.2,-999.0,83,-99.99,,,0.00,Acu-Link.com,2013-01-17 22:58:00,
2013-01-17 17:13:00,39.4,35.3,30.34,NNE,22,1.7,-999.0,85,-99.99,,,0.00,Acu-Link.com,2013-01-17 23:13:00,
2013-01-17 17:29:00,38.3,34.8,30.34,North,0,1.7,-999.0,87,-99.99,,,0.00,Acu-Link.com,2013-01-17 23:29:00,
2013-01-17 17:44:00,37.4,34.5,30.34,NNW,337,2.2,-999.0,89,-99.99,,,0.00,Acu-Link.com,2013-01-17 23:44:00,
2013-01-17 17:59:00,36.7,35.7,30.34,North,0,0.0,-999.0,96,-99.99,,,0.00,Acu-Link.com,2013-01-17 23:59:00,
2013-01-17 18:14:00,36.5,36.0,30.34,North,0,1.7,-999.0,98,-99.99,,,0.00,Acu-Link.com,2013-01-18 00:14:00,
2013-01-17 18:30:00,36.1,35.6,30.34,ENE,67,2.7,-999.0,98,-99.99,,,0.00,Acu-Link.com,2013-01-18 00:30:00,
2013-01-17 18:45:00,35.6,35.1,30.34,NNE,22,1.7,-999.0,98,-99.99,,,0.00,Acu-Link.com,2013-01-18 00:45:00,
2013-01-17 19:00:00,34.7,34.2,30.34,NNE,22,1.7,-999.0,98,-99.99,,,0.00,Acu-Link.com,2013-01-18 01:00:00,
2013-01-17 19:15:00,33.8,33.3,30.34,NNW,337,0.0,-999.0,98,-99.99,,,0.00,Acu-Link.com,2013-01-18 01:15:00,
2013-01-17 19:30:00,33.6,33.1,30.34,NNW,337,0.0,-999.0,98,-99.99,,,0.00,Acu-Link.com,2013-01-18 01:30:00,
2013-01-17 19:46:00,33.4,32.9,30.34,South,180,1.7,-999.0,98,-99.99,,,0.00,Acu-Link.com,2013-01-18 01:46:00,
2013-01-17 20:01:00,32.9,32.4,30.33,ESE,112,1.7,-999.0,98,-99.99,,,0.00,Acu-Link.com,2013-01-18 02:01:00,
2013-01-17 20:16:00,32.5,32.0,30.32,NE,45,1.7,-999.0,98,-99.99,,,0.00,Acu-Link.com,2013-01-18 02:16:00,
2013-01-17 20:31:00,32.7,32.2,30.32,SE,135,2.7,-999.0,98,-99.99,,,0.00,Acu-Link.com,2013-01-18 02:31:00,
2013-01-17 20:46:00,34.0,33.5,30.31,SSE,157,5.3,-999.0,98,-99.99,,,0.00,Acu-Link.com,2013-01-18 02:46:00,
2013-01-17 21:02:00,33.4,32.9,30.31,South,180,5.3,-999.0,98,-99.99,,,0.00,Acu-Link.com,2013-01-18 03:02:00,
2013-01-17 21:17:00,33.4,32.9,30.30,SSE,157,5.3,-999.0,98,-99.99,,,0.00,Acu-Link.com,2013-01-18 03:17:00,
2013-01-17 21:32:00,33.4,32.9,30.29,SSE,157,4.2,-999.0,98,-99.99,,,0.00,Acu-Link.com,2013-01-18 03:32:00,
2013-01-17 21:47:00,32.9,32.4,30.29,SE,135,3.7,-999.0,98,-99.99,,,0.00,Acu-Link.com,2013-01-18 03:47:00,
2013-01-17 22:02:00,32.5,32.0,30.28,SE,135,4.7,-999.0,98,-99.99,,,0.00,Acu-Link.com,2013-01-18 04:02:00,
2013-01-17 22:18:00,32.4,31.9,30.28,SSE,157,3.7,-999.0,98,-99.99,,,0.00,Acu-Link.com,2013-01-18 04:18:00,
2013-01-17 22:33:00,32.0,31.5,30.27,SSE,157,4.7,-999.0,98,-99.99,,,0.00,Acu-Link.com,2013-01-18 04:33:00,
2013-01-17 22:48:00,30.6,30.1,30.27,SSE,157,2.7,-999.0,98,-99.99,,,0.00,Acu-Link.com,2013-01-18 04:48:00,
2013-01-17 23:03:00,30.4,29.9,30.28,SSE,157,2.7,-999.0,98,-99.99,,,0.00,Acu-Link.com,2013-01-18 05:03:00,
2013-01-17 23:19:00,31.1,30.6,30.26,South,180,5.3,-999.0,98,-99.99,,,0.00,Acu-Link.com,2013-01-18 05:19:00,
2013-01-17 23:34:00,31.1,30.6,30.27,SSE,157,5.3,-999.0,98,-99.99,,,0.00,Acu-Link.com,2013-01-18 05:34:00,
2013-01-17 23:49:00,30.9,30.4,30.26,South,180,5.3,-999.0,98,-99.99,,,0.00,Acu-Link.com,2013-01-18 05:49:00,